TimeCDT,TemperatureF,Dew PointF,Humidity,Sea Level PressureIn,VisibilityMPH,Wind Direction,Wind SpeedMPH,Gust SpeedMPH,PrecipitationIn,Events,Conditions,WindDirDegrees,DateUTC
12:15 AM,46.4,39.2,76,29.79,10.0,North,24.2,35.7,N/A,,Overcast,360,2012-10-04 05:15:00
12:35 AM,46.4,37.4,71,29.79,10.0,North,25.3,38.0,N/A,,Overcast,360,2012-10-04 05:35:00
12:55 AM,44.6,37.4,76,29.79,10.0,North,26.5,33.4,N/A,,Overcast,350,2012-10-04 05:55:00
1:15 AM,44.6,37.4,76,29.79,10.0,North,21.9,36.8,N/A,,Overcast,350,2012-10-04 06:15:00
1:35 AM,44.6,37.4,76,29.79,10.0,NNW,27.6,34.5,N/A,,Overcast,340,2012-10-04 06:35:00
1:55 AM,44.6,35.6,71,29.80,10.0,NNW,27.6,35.7,N/A,,Overcast,340,2012-10-04 06:55:00
2:15 AM,42.8,35.6,76,29.80,10.0,NNW,27.6,42.6,N/A,,Overcast,340,2012-10-04 07:15:00
2:35 AM,42.8,35.6,76,29.81,10.0,NNW,26.5,33.4,N/A,,Overcast,330,2012-10-04 07:35:00
2:55 AM,42.8,35.6,76,29.81,10.0,NNW,26.5,35.7,N/A,,Overcast,340,2012-10-04 07:55:00
3:15 AM,42.8,35.6,76,29.82,10.0,NNW,26.5,35.7,N/A,,Overcast,330,2012-10-04 08:15:00
3:35 AM,42.8,35.6,76,29.83,10.0,NW,25.3,34.5,N/A,,Overcast,320,2012-10-04 08:35:00
3:55 AM,41.0,35.6,81,29.85,7.0,NW,27.6,40.3,N/A,,Overcast,320,2012-10-04 08:55:00
4:15 AM,39.2,35.6,87,29.86,3.0,NW,29.9,36.8,N/A,,Overcast,320,2012-10-04 09:15:00
4:35 AM,37.4,35.6,93,29.87,3.0,NW,33.4,42.6,N/A,,Overcast,310,2012-10-04 09:35:00
4:55 AM,35.6,33.8,93,29.88,3.0,NW,28.8,42.6,N/A,,Overcast,310,2012-10-04 09:55:00
5:15 AM,33.8,32.0,93,29.88,4.0,NW,32.2,40.3,N/A,,Overcast,320,2012-10-04 10:15:00
5:35 AM,33.8,32.0,93,29.90,4.0,NW,35.7,40.3,N/A,,Overcast,320,2012-10-04 10:35:00
5:55 AM,33.8,32.0,93,29.90,5.0,NW,31.1,43.7,N/A,,Overcast,320,2012-10-04 10:55:00
6:15 AM,33.8,32.0,93,29.91,5.0,NNW,28.8,39.1,N/A,,Overcast,330,2012-10-04 11:15:00
6:35 AM,33.8,32.0,93,29.93,10.0,NNW,23.0,40.3,N/A,,Overcast,330,2012-10-04 11:35:00
6:55 AM,33.8,32.0,93,29.94,7.0,NW,23.0,34.5,N/A,,Overcast,320,2012-10-04 11:55:00
7:15 AM,33.8,32.0,93,29.95,10.0,NW,27.6,38.0,N/A,,Overcast,320,2012-10-04 12:15:00
7:35 AM,33.8,32.0,93,29.96,7.0,NW,27.6,35.7,N/A,,Overcast,320,2012-10-04 12:35:00
7:55 AM,33.8,32.0,93,29.97,10.0,NW,28.8,33.4,N/A,,Overcast,310,2012-10-04 12:55:00
8:15 AM,33.8,32.0,93,29.99,10.0,NW,28.8,41.4,N/A,,Overcast,310,2012-10-04 13:15:00
8:35 AM,33.8,32.0,93,30.00,7.0,NW,26.5,36.8,N/A,,Overcast,310,2012-10-04 13:35:00
8:55 AM,33.8,32.0,93,30.01,10.0,NW,28.8,38.0,N/A,,Overcast,320,2012-10-04 13:55:00
9:15 AM,33.8,32.0,93,30.01,7.0,NW,26.5,35.7,N/A,,Overcast,310,2012-10-04 14:15:00
9:35 AM,33.8,33.8,100,30.02,7.0,NW,28.8,38.0,0.01,,Overcast,320,2012-10-04 14:35:00
9:55 AM,35.6,33.8,93,30.03,10.0,NW,28.8,38.0,0.01,,Overcast,310,2012-10-04 14:55:00
10:15 AM,35.6,33.8,93,30.04,10.0,NW,28.8,42.6,N/A,,Overcast,320,2012-10-04 15:15:00
10:35 AM,35.6,33.8,93,30.05,10.0,NW,32.2,39.1,N/A,,Overcast,310,2012-10-04 15:35:00
10:55 AM,37.4,32.0,81,30.06,10.0,NW,32.2,40.3,N/A,,Overcast,320,2012-10-04 15:55:00
11:35 AM,39.2,32.0,75,30.07,10.0,NW,28.8,41.4,N/A,,Overcast,320,2012-10-04 16:35:00
11:55 AM,41.0,32.0,70,30.08,10.0,NW,27.6,41.4,N/A,,Overcast,320,2012-10-04 16:55:00
12:15 PM,41.0,32.0,70,30.09,10.0,NW,26.5,39.1,N/A,,Overcast,320,2012-10-04 17:15:00
12:35 PM,41.0,32.0,70,30.10,10.0,NW,27.6,41.4,N/A,,Overcast,320,2012-10-04 17:35:00
12:55 PM,41.0,32.0,70,30.11,10.0,NW,28.8,39.1,N/A,,Overcast,310,2012-10-04 17:55:00
1:15 PM,41.0,32.0,70,30.10,10.0,NW,34.5,39.1,N/A,,Overcast,310,2012-10-04 18:15:00
1:35 PM,41.0,32.0,70,30.11,10.0,NW,26.5,38.0,N/A,,Overcast,320,2012-10-04 18:35:00
1:55 PM,41.0,30.2,65,30.11,10.0,NW,27.6,38.0,N/A,,Overcast,320,2012-10-04 18:55:00
2:15 PM,41.0,30.2,65,30.12,10.0,NW,24.2,35.7,N/A,,Overcast,320,2012-10-04 19:15:00
2:35 PM,41.0,32.0,70,30.12,10.0,NW,28.8,38.0,N/A,,Overcast,320,2012-10-04 19:35:00
2:55 PM,42.8,30.2,61,30.13,10.0,NW,28.8,36.8,N/A,,Overcast,320,2012-10-04 19:55:00
3:15 PM,41.0,30.2,65,30.13,10.0,NW,24.2,35.7,N/A,,Overcast,320,2012-10-04 20:15:00
3:35 PM,42.8,30.2,61,30.14,10.0,NW,27.6,35.7,N/A,,Overcast,320,2012-10-04 20:35:00
3:55 PM,42.8,30.2,61,30.14,10.0,NW,25.3,32.2,N/A,,Overcast,320,2012-10-04 20:55:00
4:15 PM,42.8,30.2,61,30.14,10.0,NW,25.3,34.5,N/A,,Overcast,320,2012-10-04 21:15:00
4:35 PM,42.8,32.0,66,30.15,10.0,NW,20.7,31.1,N/A,,Overcast,310,2012-10-04 21:35:00
4:55 PM,42.8,32.0,66,30.15,10.0,NW,24.2,32.2,N/A,,Overcast,320,2012-10-04 21:55:00
5:15 PM,42.8,32.0,66,30.16,10.0,NW,19.6,31.1,N/A,,Overcast,320,2012-10-04 22:15:00
5:35 PM,42.8,32.0,66,30.16,10.0,NW,19.6,25.3,N/A,,Overcast,310,2012-10-04 22:35:00
5:55 PM,42.8,30.2,61,30.17,10.0,NW,29.9,38.0,N/A,,Overcast,310,2012-10-04 22:55:00
6:15 PM,41.0,32.0,70,30.17,10.0,NW,25.3,32.2,N/A,,Overcast,310,2012-10-04 23:15:00
6:35 PM,41.0,32.0,70,30.18,10.0,NW,19.6,25.3,N/A,,Overcast,310,2012-10-04 23:35:00
6:55 PM,41.0,32.0,70,30.18,10.0,NW,17.3,-,N/A,,Overcast,310,2012-10-04 23:55:00
7:15 PM,41.0,32.0,70,30.19,10.0,NW,17.3,-,N/A,,Overcast,320,2012-10-05 00:15:00
7:35 PM,39.2,32.0,75,30.19,10.0,NW,21.9,32.2,N/A,,Overcast,320,2012-10-05 00:35:00
7:55 PM,37.4,32.0,81,30.20,10.0,NW,15.0,-,N/A,,Overcast,310,2012-10-05 00:55:00
8:15 PM,37.4,32.0,81,30.19,10.0,NW,12.7,-,N/A,,Overcast,310,2012-10-05 01:15:00
8:35 PM,37.4,32.0,81,30.20,10.0,NW,12.7,20.7,N/A,,Mostly Cloudy,310,2012-10-05 01:35:00
8:55 PM,37.4,32.0,81,30.20,10.0,WNW,15.0,-,N/A,,Mostly Cloudy,300,2012-10-05 01:55:00
9:15 PM,37.4,32.0,81,30.20,10.0,WNW,15.0,24.2,N/A,,Overcast,300,2012-10-05 02:15:00
9:35 PM,37.4,32.0,81,30.21,10.0,NW,11.5,15.0,N/A,,Overcast,310,2012-10-05 02:35:00
9:55 PM,37.4,32.0,81,30.21,10.0,WNW,16.1,-,N/A,,Overcast,300,2012-10-05 02:55:00
10:15 PM,37.4,32.0,81,30.21,10.0,WNW,12.7,-,N/A,,Overcast,300,2012-10-05 03:15:00
10:35 PM,37.4,30.2,75,30.21,10.0,NW,12.7,18.4,N/A,,Scattered Clouds,310,2012-10-05 03:35:00
10:55 PM,35.6,30.2,81,30.21,10.0,NW,16.1,24.2,N/A,,Clear,320,2012-10-05 03:55:00
11:15 PM,33.8,30.2,87,30.21,10.0,NW,12.7,-,N/A,,Clear,310,2012-10-05 04:15:00
11:55 PM,33.8,28.4,81,30.22,10.0,WNW,11.5,-,N/A,,Scattered Clouds,290,2012-10-05 04:55:00